Location: Banios
(43.0451°N, 0.2335°E)
Time: 12:35:33
(UTC+00:00)

Cosmos 2150 Rocket - Pass Details

Date: 25 January 2021
Orbit: 748 x 808 km, 74.0° (Epoch: 25 February)

Event Time Altitude Azimuth Distance (km) Brightness Sun altitude
Exits shadow 05:39:23 - 341° (NNW) 2,594 6.5 -18.5°
Reaches altitude 10° 05:40:01 10° 342° (NNW) 2,352 6.3 -18.4°
Maximum altitude 05:45:23 79° 70° (ENE) 813 4.2 -17.4°
Drops below altitude 10° 05:50:48 10° 157° (SSE) 2,370 7.0 -16.4°
Sets 05:53:12 0° 158° (SSE) 3,302 7.8 -16.0°
